Location: Carrizalito
(10.3833°N, 67.0217°W)
Time: 15:41:25
(UTC+00:00)

Oscar 19 - Visible Passes

Search period start: 20 March 2023 00:00
Search period end: 30 March 2023 00:00
Orbit: 772 x 790 km, 98.8° (Epoch: 20 March)

Date Brightness Start Highest point End Pass type
(mag) Time Alt. Az. Time Alt. Az. Time Alt. Az.
21 Mar 12.9 09:03:08 10° NNW 09:03:12 10° NNW 09:03:12 10° NNW visible
22 Mar 12.9 08:30:10 10° N 08:30:50 14° N 08:30:50 14° N visible
23 Mar 13.3 07:58:07 10° NNE 07:58:28 12° NNE 07:58:28 12° NNE visible
24 Mar 12.7 09:06:03 10° NNW 09:06:39 12° NNW 09:06:39 12° NNW visible
25 Mar 12.6 08:33:00 10° N 08:34:16 18° N 08:34:16 18° N visible
26 Mar 13.0 08:00:53 10° NNE 08:01:53 16° NNE 08:01:53 16° NNE visible
27 Mar 12.5 09:08:59 10° NNW 09:10:04 14° NW 09:10:04 14° NW visible
28 Mar 12.3 08:35:50 10° N 08:37:40 22° N 08:37:40 22° N visible
29 Mar 12.7 08:03:39 10° NNE 08:05:17 21° NNE 08:05:17 21° NNE visible
